Starlink 3786

operational
NORAD ID: 52263 Int'l Des: 2022-041 Owner: SPXS Country: US Constellation: starlink
LEOCIRCULAR

关于 Starlink 3786

正在加载描述...

实时位置

正在加载3D地球...

即将过境

高度历史

Altitude vs Time

uPlot chart will show altitude changes over time

两行轨道根数

1 52263U 22041C 26036.85413825 .00001279 00000-0 98451-4 0 9990
2 52263 53.2160 252.0390 0001285 99.5890 260.5248 15.08826083209553
Epoch: Feb 5, 2026 • Age: 11 hours

当前状态

高度 541.5 km
速度 7.60 km/s
星下点 32.69°N, 24.75°E
发射日期 Apr 21, 2022
运行时间 3.7 years
类型 internet

技术详情

分类 Payload
质量 297.00 kg
干质量 275.00 kg
总质量 297.00 kg
长度 0.20 m
直径 2.80 m
跨度 9.00 m
形状 Box + pan
制造商 SPXS
平台类型 Starlink
阶段状态 In Orbit
所有者/国家 SPXS/US

大型星座

Loading constellations...